Weather History for Erwin, NC

Change the Weather History Date:

Friday, April 18, 2014

  Actual Average Record
Temperature  
Mean Temperature 54 °F -  
Max Temperature 66 °F 74 °F 98 °F (2002)
Min Temperature 41 °F 48 °F 33 °F (1983)
Degree Days  
Heating Degree Days 12    
Growing Degree Days 4 (Base 50)    
Moisture  
Dew Point 40 °F    
Average Humidity 65    
Maximum Humidity 95    
Minimum Humidity 37    
Precipitation  
Precipitation 0.16 in - - ()
Sea Level Pressure  
Sea Level Pressure 30.35 in    
Wind  
Wind Speed 7 mph (NNE)    
Max Wind Speed 12 mph    
Max Gust Speed 16 mph    
Visibility 10 miles    
Events Rain    
Averages and records for this station are not official NWS values.
T = Trace of Precipitation, MM = Missing Value Source: NWS Daily Summary

Daily Weather History Graph

Daily Weather History Graph

Search for Another Location

Airport:

Trip Planner

Search our weather history database for the weather conditions in past years. The results will help you decide how hot, cold, wet, or windy it might be!

Date:

Astronomy

Apr. 18, 2014 Rise Set
Actual Time 6:38 AM EDT 7:50 PM EDT
Civil Twilight 6:12 AM EDT 8:16 PM EDT
Nautical Twilight 5:41 AM EDT 8:48 PM EDT
Astronomical Twilight 5:08 AM EDT 9:20 PM EDT
Moon 11:28 PM EDT (4/18) 9:03 AM EDT (4/18)
Length of Visible Light 14h 04m
Length of Day
13h 11m
Waning Gibbous, 87% of the Moon is Illuminated
Apr 18
Waning Gibbous
Apr 22
Last Quarter
Apr 29
New
May 6
First Quarter
May 14
Full

Hourly Weather History & Observations

Time (EDT) Temp. Windchill Dew Point Humidity Pressure Visibility Wind Dir Wind Speed Gust Speed Precip Events Conditions
12:15 AM 50.9 °F - 41.0 °F 69% 30.45 in 10.0 mi ENE 11.5 mph - N/A   Clear
12:35 AM 50.2 °F - 40.1 °F 68% 30.45 in 10.0 mi ENE 10.4 mph - N/A   Clear
12:55 AM 48.9 °F - 40.5 °F 73% 30.45 in 10.0 mi NE 6.9 mph - N/A   Clear
1:15 AM 48.6 °F - 38.8 °F 69% 30.44 in 10.0 mi NE 10.4 mph - N/A   Clear
1:35 AM 47.5 °F - 38.8 °F 72% 30.44 in 10.0 mi NE 9.2 mph - N/A   Clear
1:55 AM 46.8 °F - 38.5 °F 73% 30.43 in 10.0 mi NE 6.9 mph - N/A   Clear
2:15 AM 46.2 °F 42.2 °F 38.3 °F 74% 30.43 in 10.0 mi NE 8.1 mph - N/A   Clear
2:35 AM 45.5 °F 41.8 °F 38.1 °F 75% 30.42 in 10.0 mi NNE 6.9 mph - N/A   Scattered Clouds
2:55 AM 45.0 °F 41.2 °F 37.8 °F 76% 30.43 in 10.0 mi NE 6.9 mph - N/A   Clear
3:15 AM 44.6 °F 40.7 °F 37.6 °F 76% 30.43 in 10.0 mi NNE 6.9 mph - N/A   Clear
3:35 AM 43.9 °F 40.5 °F 37.4 °F 78% 30.42 in 10.0 mi NNE 5.8 mph - N/A   Clear
3:55 AM 43.7 °F 42.1 °F 37.4 °F 78% 30.42 in 10.0 mi NNE 3.5 mph - N/A   Clear
4:15 AM 43.7 °F 42.1 °F 37.4 °F 78% 30.42 in 10.0 mi NNE 3.5 mph - N/A   Mostly Cloudy
4:35 AM 43.7 °F 39.7 °F 37.2 °F 78% 30.42 in 10.0 mi NNE 6.9 mph - N/A   Overcast
4:55 AM 42.8 °F 40.1 °F 36.7 °F 79% 30.41 in 10.0 mi NNE 4.6 mph - N/A   Mostly Cloudy
5:15 AM 42.3 °F 37.9 °F 36.5 °F 80% 30.40 in 10.0 mi NNE 6.9 mph - N/A   Mostly Cloudy
5:35 AM 41.9 °F 39.0 °F 36.7 °F 82% 30.41 in 10.0 mi North 4.6 mph - N/A   Scattered Clouds
5:55 AM 41.7 °F 38.0 °F 36.9 °F 83% 30.41 in 10.0 mi North 5.8 mph - N/A   Clear
6:15 AM 41.4 °F 38.4 °F 36.9 °F 84% 30.41 in 10.0 mi North 4.6 mph - N/A   Clear
6:35 AM 41.4 °F 39.4 °F 36.9 °F 84% 30.42 in 10.0 mi North 3.5 mph - N/A   Clear
6:55 AM 41.0 °F 38.0 °F 36.7 °F 85% 30.42 in 10.0 mi North 4.6 mph - N/A   Clear
7:15 AM 41.0 °F 38.0 °F 36.7 °F 85% 30.42 in 10.0 mi North 4.6 mph - N/A   Clear
7:35 AM 41.5 °F 36.4 °F 36.9 °F 83% 30.43 in 10.0 mi North 8.1 mph - N/A   Scattered Clouds
7:55 AM 42.6 °F 37.8 °F 37.2 °F 81% 30.43 in 10.0 mi North 8.1 mph - N/A   Mostly Cloudy
8:15 AM 43.0 °F 38.2 °F 37.2 °F 80% 30.43 in 10.0 mi NNE 8.1 mph - N/A   Overcast
8:35 AM 44.2 °F 40.3 °F 37.2 °F 76% 30.43 in 10.0 mi North 6.9 mph - N/A   Overcast
8:55 AM 44.8 °F 40.4 °F 36.9 °F 74% 30.43 in 10.0 mi North 8.1 mph 16.1 mph N/A   Mostly Cloudy
9:15 AM 46.6 °F - 36.9 °F 69% 30.43 in 10.0 mi NNE 9.2 mph - N/A   Scattered Clouds
9:35 AM 47.7 °F - 36.7 °F 66% 30.41 in 10.0 mi NNE 8.1 mph - N/A   Clear
9:55 AM 49.1 °F - 37.0 °F 63% 30.41 in 10.0 mi North 6.9 mph - N/A   Clear
10:15 AM 49.6 °F - 36.9 °F 61% 30.41 in 10.0 mi NNE 6.9 mph - N/A   Clear
10:35 AM 51.4 °F - 36.9 °F 58% 30.42 in 10.0 mi NNE 4.6 mph - N/A   Clear
10:55 AM 51.1 °F - 36.5 °F 57% 30.41 in 10.0 mi North 4.6 mph - N/A   Clear
11:15 AM 52.7 °F - 36.7 °F 55% 30.41 in 10.0 mi NNE 6.9 mph - N/A   Clear
11:35 AM 54.1 °F - 37.4 °F 53% 30.41 in 10.0 mi North 8.1 mph - N/A   Clear
12:15 PM 54.9 °F - 36.9 °F 51% 30.40 in 10.0 mi North 5.8 mph - N/A   Overcast
12:35 PM 56.1 °F - 36.1 °F 47% 30.40 in 10.0 mi NNE 5.8 mph - N/A   Overcast
12:55 PM 57.4 °F - 36.7 °F 46% 30.38 in 10.0 mi North 3.5 mph - N/A   Mostly Cloudy
1:15 PM 59.2 °F - 36.7 °F 43% 30.37 in 10.0 mi NNE 6.9 mph - N/A   Mostly Cloudy
1:35 PM 60.3 °F - 37.4 °F 43% 30.36 in 10.0 mi NE 5.8 mph - N/A   Mostly Cloudy
1:55 PM 60.3 °F - 36.1 °F 41% 30.35 in 10.0 mi ENE 3.5 mph - N/A   Scattered Clouds
2:15 PM 61.7 °F - 37.8 °F 41% 30.33 in 10.0 mi NNW 5.8 mph - N/A   Clear
2:35 PM 63.9 °F - 37.8 °F 38% 30.32 in 10.0 mi North 4.6 mph - N/A   Clear
2:55 PM 63.9 °F - 39.2 °F 40% 30.31 in 10.0 mi ENE 8.1 mph - N/A   Clear
3:15 PM 65.7 °F - 41.2 °F 41% 30.30 in 10.0 mi ENE 4.6 mph - N/A   Clear
3:35 PM 66.6 °F - 39.4 °F 37% 30.28 in 10.0 mi North 4.6 mph - N/A   Clear
3:55 PM 64.8 °F - 40.8 °F 42% 30.27 in 10.0 mi North 8.1 mph - N/A   Scattered Clouds
4:15 PM 64.6 °F - 41.4 °F 43% 30.27 in 10.0 mi North 6.9 mph - N/A   Mostly Cloudy
4:35 PM 65.3 °F - 40.1 °F 40% 30.26 in 10.0 mi East 8.1 mph - N/A   Scattered Clouds
4:55 PM 64.8 °F - 41.4 °F 42% 30.26 in 10.0 mi NE 6.9 mph - N/A   Scattered Clouds
5:15 PM 64.4 °F - 41.5 °F 43% 30.26 in 10.0 mi ENE 6.9 mph - N/A   Mostly Cloudy
5:35 PM 63.7 °F - 41.7 °F 45% 30.25 in 10.0 mi NNE 6.9 mph - N/A   Overcast
5:55 PM 62.8 °F - 42.3 °F 47% 30.26 in 10.0 mi NNE 4.6 mph - N/A   Mostly Cloudy
6:15 PM 62.6 °F - 42.4 °F 48% 30.26 in 10.0 mi NNE 5.8 mph - N/A   Scattered Clouds
6:35 PM 61.9 °F - 43.0 °F 50% 30.25 in 10.0 mi NNE 5.8 mph - N/A   Mostly Cloudy
6:55 PM 61.7 °F - 43.2 °F 51% 30.24 in 10.0 mi ENE 5.8 mph - N/A   Overcast
7:15 PM 61.2 °F - 43.2 °F 52% 30.24 in 10.0 mi NE 4.6 mph - N/A   Overcast
7:35 PM 61.2 °F - 42.3 °F 50% 30.24 in 10.0 mi NE 5.8 mph - N/A   Overcast
7:55 PM 60.8 °F - 42.3 °F 50% 30.25 in 10.0 mi ENE 4.6 mph - N/A   Overcast
8:15 PM 59.9 °F - 42.1 °F 52% 30.24 in 10.0 mi NNE 6.9 mph - N/A   Overcast
8:35 PM 59.5 °F - 42.3 °F 53% 30.25 in 10.0 mi NNE 4.6 mph - N/A Rain Light Rain
8:55 PM 57.7 °F - 45.9 °F 65% 30.27 in 10.0 mi Calm Calm - N/A Rain Light Rain
9:15 PM 54.7 °F - 48.2 °F 79% 30.27 in 7.0 mi Calm Calm - 0.02 in Rain Light Rain
9:35 PM 53.8 °F - 48.4 °F 82% 30.27 in 10.0 mi North 4.6 mph - 0.03 in Rain Rain
9:55 PM 53.1 °F - 48.6 °F 85% 30.27 in 10.0 mi North 3.5 mph - 0.04 in Rain Light Rain
10:15 PM 52.7 °F - 49.5 °F 89% 30.27 in 7.0 mi NNE 3.5 mph - 0.03 in Rain Rain
10:35 PM 52.2 °F - 50.4 °F 94% 30.26 in 7.0 mi North 4.6 mph - 0.06 in Rain Light Rain
10:55 PM 52.0 °F - 50.4 °F 94% 30.25 in 7.0 mi NNE 4.6 mph - 0.08 in Rain Light Rain
11:15 PM 51.8 °F - 50.0 °F 94% 30.25 in 7.0 mi NNE 5.8 mph - 0.02 in Rain Light Rain
11:35 PM 51.4 °F - 50.2 °F 95% 30.23 in 7.0 mi North 5.8 mph - 0.03 in Rain Rain
11:55 PM 51.3 °F - 50.0 °F 95% 30.23 in 10.0 mi NNE 6.9 mph - 0.04 in   Drizzle